カタログに戻る

SL-23 DEB

LostHEO
NORAD 43385·DEBRIS·🇷🇺 Russia

打ち上げ Feb 26, 2009 から Baikonur Cosmodrome

Loading…

次のパス (今後24時間)

TLE

古いSource: Space-Track

元期: Feb 18, 2025, 05:46 UTC

1 43385U 09009D   25049.24029079 -.00000114  00000-0  00000-0 0  9991
2 43385  34.7773 327.1904 6947111 106.0333   1.5684  2.21230851 93816

AllMySatでSL-23 DEBをリアルタイム追跡

Download on the App Store